Regional Weather Roundup
Issued by NWS

Home | Current Version | Previous Version | Text Only | Print | Product List | Glossary Off
Versions: 1 2 3 4 5 6 7 8 9 10 11 12 13 14 15 16 17 18 19 20 21 22 23 24 25 26 27 28 29 30 31 32 33 34 35 36 37 38 39 40 41 42 43 44 45 46 47 48 49 50

000
ASUS43 KLOT 211600
RWRIL

ILLINOIS REGIONAL WEATHER ROUNDUP
NATIONAL WEATHER SERVICE CHICAGO/ROMEOVILLE IL
1100 AM CDT SUN SEP 21 2014

NOTE: "FAIR" INDICATES FEW OR NO CLOUDS BELOW 12,000 FEET WITH NO
SIGNIFICANT WEATHER AND/OR OBSTRUCTIONS TO VISIBILITY.

* THESE STATIONS ARE NOT UNDER NWS QUALITY CONTROL. THEY ALSO MAY NOT
  REPORT WEATHER SUCH AS PRECIPITATION OR FOG.

ILZ001-002-007-009-015-016-024-211700-
NORTHWEST ILLINOIS

CITY           SKY/WX    TMP DP  RH WIND       PRES   REMARKS
MOLINE         CLOUDY    62  50  64 NW15G23   30.01R
STERLING*      PTSUNNY   63  52  67 N20G25    29.96R
$$

ILZ003-004-008-010-011-017-018-211700-
NORTH CENTRAL ILLINOIS

CITY           SKY/WX    TMP DP  RH WIND       PRES   REMARKS
ROCKFORD       CLOUDY    60  50  69 NW13G22   29.95R
ROCHELLE*      CLOUDY    60  49  69 NW18G25   29.94R
$$

ILZ005-006-012>014-019>023-211700-
NORTHEAST ILLINOIS

CITY           SKY/WX    TMP DP  RH WIND       PRES   REMARKS
CHICAGO-OHARE  CLOUDY    63  50  62 NW22      29.87R
CHICAGO-MIDWAY CLOUDY    63  51  65 NW20G29   29.87R
AURORA         CLOUDY    61  50  67 NW16G28   29.91R
LANSING*       CLOUDY    61  51  69 NW13      29.88R
WAUKEGAN       PTSUNNY   59  51  75 NW15G25   29.85R
DUPAGE AIRPORT CLOUDY    60  50  69 NW17G28   29.89R
WHEELING       CLOUDY    61  50  67 NW20G26   29.88R
NORTHERLY ISL    N/A     61  50  67 NW15        N/A
$$

LMZ740>746-211700-
SOUTHERN LAKE MICHIGAN

STATION/POSITION SKY/WX   TEMP    WIND        PRES    VSBY  WAVE
                          AIR SEA DIR/SP/G                  HT/PER
                          (F)     (DEG/KT/KT) (MB)    (MI)  (FT/S)
SOUTHERN BUOY              59 63  290/ 25/ 31 1007.6R         6/ 6
WAUKEGAN HARBOR            59     320/ 12/ 23   N/A
HARRISON CRIB              60     300/ 23/ 28   N/A
BURNHAM HARBOR             61     310/ 12/ 19   N/A
CALUMET HARBOR             61     280/ 10/ 16 1009.9R
MICHIGAN CITY              60     270/ 26/ 31   N/A
MICHIGAN CITY 6N           61 65  300/ 21/ 29   N/A           7/ 5
ST. JOSEPH                 61 65  300/ 23/ 31   N/A           8/ 6
$$

ILZ025>027-034>036-040-047-049-050-058-095>099-211700-
WEST-CENTRAL ILLINOIS

CITY           SKY/WX    TMP DP  RH WIND       PRES   REMARKS
QUINCY         SUNNY     68  50  52 NW18G25   30.06R
GALESBURG*     SUNNY     66  51  58 NW18G28   30.00R
MACOMB*        SUNNY     67  50  54 NW18G26   30.04S
$$

ILZ028>032-037-038-041>044-048-051>054-059>061-211700-
CENTRAL ILLINOIS

CITY           SKY/WX    TMP DP  RH WIND       PRES   REMARKS
PONTIAC        MOSUNNY   66  52  59 NW15G25   29.92R
DECATUR        SUNNY     69  54  58 W13G23    29.98R
PEORIA         SUNNY     68  49  50 NW15G30   29.97R
SPRINGFIELD    SUNNY     71  53  52 NW13G23   30.01R
TAYLORVILLE    NOT AVBL
$$

ILZ033-039-045-046-055>057-062-063-211700-
EAST-CENTRAL ILLINOIS

CITY           SKY/WX    TMP DP  RH WIND       PRES   REMARKS
CHAMPAIGN      SUNNY     69  52  54 NW18G26   29.95R
MATTOON        SUNNY     69  54  58 W15       29.97R
$$

ILZ079-100>102-211700-
SOUTHWEST ILLINOIS

CITY           SKY/WX    TMP DP  RH WIND       PRES   REMARKS
ALTON          SUNNY     72  46  40 NW17G23   30.04R
BELLEVILLE     SUNNY     74  53  47 W10       30.04R
CAHOKIA*       SUNNY     75  49  39 NW9       30.05S
SPARTA*        SUNNY     73  51  46 NW9       30.06S
$$

ILZ064>066-069>071-074>076-080>082-084>086-088>090-092>094-211700-
SOUTH-CENTRAL ILLINOIS

CITY           SKY/WX    TMP DP  RH WIND       PRES   REMARKS
CARBONDALE     SUNNY     74  52  46 N7G18     30.04S
MT. VERNON     SUNNY     72  54  53 W6        30.03S
$$

ILZ067-068-072-073-078-083-087-091-211700-
SOUTHEAST ILLINOIS

CITY           SKY/WX    TMP DP  RH WIND       PRES   REMARKS
LAWRENCEVILLE  SUNNY     74  55  51 NW15      29.97S
ROBINSON*      SUNNY     74  55  52 NW14G21   29.97S
$$

ABBREVIATIONS USED IN REMARKS
   TC - TEMPERATURE IN CELSIUS
  WCI - WIND CHILL INDEX
   HX - HEAT INDEX
  VSB - VISIBILITY
$$




USA.gov is the U.S. government's official web portal to all federal, state and local government web resources and services.